This is the latest recevied weather packets stored in our database for station/object PU5BHV. If no packets are shown the sender has not sent any weather packets the latest 10 day(s).
| Time | Temp. | Humidity | Pressure | Rain* | Wind** | Luminosity | Snow |
|---|---|---|---|---|---|---|---|
| 1778066833 | 20° C | 99% | 1021.2 hPa | 0 mm | - | 41 W/m² | - |
| 1778066531 | 20° C | 99% | 1021.2 hPa | 0 mm | - | 35 W/m² | - |
| 1778066228 | 20° C | 99% | 1021.1 hPa | 0 mm | - | 35 W/m² | - |
| 1778065926 | 20° C | 99% | 1021.2 hPa | 0 mm | - | 29 W/m² | - |
| 1778065623 | 20° C | 99% | 1021.1 hPa | 0 mm | - | 27 W/m² | - |
| 1778065321 | 20° C | 99% | 1021 hPa | 0 mm | - | 26 W/m² | - |
| 1778065017 | 20° C | 99% | 1021.1 hPa | 0 mm | - | 22 W/m² | - |
| 1778064714 | 20° C | 99% | 1020.7 hPa | 0 mm | - | 20 W/m² | - |
| 1778064412 | 19.44° C | 99% | 1020.7 hPa | 0 mm | - | 19 W/m² | - |
| 1778064109 | 19.44° C | 99% | 1020.6 hPa | 0 mm | - | 19 W/m² | - |
| 1778063806 | 19.44° C | 99% | 1020.7 hPa | 0 mm | - | 16 W/m² | - |
| 1778063503 | 19.44° C | 99% | 1020.5 hPa | 0 mm | - | 11 W/m² | - |
| 1778063201 | 19.44° C | 99% | 1020.6 hPa | 0 mm | - | 12 W/m² | - |
| 1778062898 | 19.44° C | 99% | 1020.5 hPa | 0 mm | - | 9 W/m² | - |
| 1778062595 | 19.44° C | 99% | 1020.5 hPa | 0 mm | - | 6 W/m² | - |
| 1778062292 | 19.44° C | 99% | 1020.4 hPa | 0 mm | - | 4 W/m² | - |
| 1778061991 | 19.44° C | 99% | 1020.4 hPa | 0 mm | - | 3 W/m² | - |
| 1778061688 | 19.44° C | 99% | 1020.3 hPa | 0 mm | - | 3 W/m² | - |
| 1778061387 | 19.44° C | 99% | 1020.1 hPa | 0 mm | - | 0 W/m² | - |
| 1778061083 | 19.44° C | 99% | 1020.4 hPa | 0 mm | - | 0 W/m² | - |
| 1778060781 | 20° C | 99% | 1020.2 hPa | 0 mm | - | 0 W/m² | - |
| 1778060478 | 19.44° C | 99% | 1020.2 hPa | 0 mm | - | 0 W/m² | - |
| 1778060176 | 19.44° C | 99% | 1020 hPa | 0 mm | - | 0 W/m² | - |
| 1778059873 | 19.44° C | 99% | 1020 hPa | 0 mm | - | 0 W/m² | - |
| 1778059571 | 19.44° C | 99% | 1019.9 hPa | 0 mm | - | 0 W/m² | - |
* Rain latest hour (hover to see other rain measurements)
** Current wind speed in m/s (hover to see current wind gust speed)